Location: Albacete
(38.9833°N, 1.8500°W)
Time: 07:43:50
(UTC+02:00)

ISS - Visible Passes

Search period start: 22 June 2024 00:00
Search period end: 02 July 2024 00:00
Orbit: 410 x 425 km, 51.6° (Epoch: 21 June)

Date Brightness Start Highest point End Pass type
(mag) Time Alt. Az. Time Alt. Az. Time Alt. Az.
22 Jun -1.1 04:34:31 10° SE 04:34:45 10° SE 04:34:58 10° ESE visible
22 Jun -3.7 06:07:43 10° SW 06:11:02 78° NW 06:14:23 10° NE visible
23 Jun -3.5 05:21:16 24° SSW 05:23:02 57° SE 05:26:19 10° ENE visible
24 Jun -2.6 04:35:02 30° SE 04:35:03 30° SE 04:38:02 10° ENE visible
24 Jun -2.3 06:08:50 10° W 06:11:48 29° NNW 06:14:47 10° NE visible
25 Jun -1.1 03:48:42 13° E 03:48:42 13° E 03:49:23 10° E visible
25 Jun -3.1 05:21:36 20° W 05:23:36 46° NW 05:26:51 10° NE visible
26 Jun -3.9 04:35:12 73° W 04:35:27 82° NW 04:38:47 10° NE visible
26 Jun -1.3 06:10:28 10° WNW 06:12:38 16° NNW 06:14:50 10° NNE visible
27 Jun -2.1 03:48:42 29° ENE 03:48:42 29° ENE 03:50:35 10° ENE visible
27 Jun -1.7 05:21:38 10° WNW 05:24:17 21° NNW 05:26:56 10° NNE visible
28 Jun -0.6 03:02:08 10° ENE 03:02:08 10° ENE 03:02:09 10° ENE visible
28 Jun -2.3 04:35:02 26° WNW 04:35:56 30° NNW 04:38:57 10° NE visible
28 Jun -0.8 06:12:33 10° NNW 06:13:32 11° N 06:14:31 10° N visible
29 Jun -2.4 03:48:23 39° N 03:48:23 39° N 03:50:52 10° NE visible
29 Jun -1.0 05:23:22 10° NW 05:25:01 13° NNW 05:26:40 10° NNE visible
30 Jun -1.2 03:01:40 18° NE 03:01:40 18° NE 03:02:41 10° NE visible
30 Jun -1.1 04:34:33 11° WNW 04:36:30 16° NNW 04:38:44 10° NNE visible
01 Jul -1.6 03:47:45 22° NNW 03:48:01 22° NNW 03:50:43 10° NNE visible
